Location: Kouchibouguac National Park
(46.8081°N, 64.9088°W)
Time: 07:00:47
(UTC-03:00)

Daily predictions for brighter satellites

Satellite Brightness Start Highest point End
(mag) Time Altitude Azimuth Time Altitude Azimuth Time Altitude Azimuth
USA 238 DEB 4.4 19:20:01 10° SW 19:27:00 62° NW 19:34:00 10° NE
USA 238 4.3 19:20:06 10° SW 19:27:06 62° NW 19:34:06 10° NE
Aureole 2 Rocket 3.1 19:26:08 10° SSW 19:30:31 81° WNW 19:34:43 10° NNE
Meteor 1-28 Rocket 3.8 19:28:19 10° NNE 19:31:45 33° E 19:35:08 10° SSE
Cosmos 1943 Rocket 3.7 19:31:32 10° N 19:35:27 19° NE 19:39:20 10° E
NOAA 12 4.1 19:32:16 10° SSE 19:37:27 64° ENE 19:42:43 10° N
Cosmos 1452 Rocket 3.6 19:32:58 10° NNW 19:38:16 89° ENE 19:43:32 10° SSE
Cosmos 1743 Rocket 4.1 19:37:28 10° N 19:41:37 37° ENE 19:45:43 10° SE
Cosmos 2369 Rocket 2.8 19:38:05 10° NNW 19:43:20 37° NE 19:48:35 10° ESE
CENTAUR R/B 3.5 19:39:57 10° SSE 19:44:44 24° ESE 19:49:54 10° ENE
H-2A R/B 4.3 19:42:05 10° ESE 19:44:47 18° ENE 19:47:29 10° NNE
SAR-Lupe-1 4.0 19:41:46 10° SSE 19:45:19 82° ENE 19:48:55 10° NNW
Resurs 1-3 4.2 19:41:49 10° SE 19:45:49 36° ENE 19:49:51 10° N
DMSP B5D1-3 4.5 19:41:30 10° NNE 19:46:38 80° ESE 19:51:44 10° SSW
ALOS 3.1 19:43:41 10° SE 19:47:43 30° ENE 19:51:45 10° N
Cosmos 1805 3.4 19:44:13 10° S 19:48:01 49° E 19:51:51 10° NNE
Cosmos 1943 4.3 19:43:58 10° SSE 19:48:11 22° E 19:52:24 10° NE
Cosmos 192 4.4 19:44:08 10° SSW 19:49:06 87° WNW 19:54:06 10° NNE
Helios 1B rocket 3.1 19:48:28 10° NNE 19:52:12 32° E 19:55:55 10° SSE
SL-8 R/B 4.4 19:48:10 10° SSW 19:52:33 37° SSE 19:56:18 13° E
Resurs 01 Rocket 1.8 19:49:23 10° SSE 19:53:43 54° ENE 19:58:05 10° N
Cosmos 1603 3.8 19:49:29 10° S 19:55:04 55° ESE 20:00:41 10° NE
Cosmos 1420 Rocket 4.0 19:52:10 10° NNW 19:57:30 76° ENE 20:02:49 10° SSE
NOSS 3-2 (C) 3.6 19:52:33 10° SW 19:58:43 89° NW 20:05:32 10° NE
COSMO-SKYMED 1 3.4 19:55:59 10° N 20:00:15 56° WNW 20:04:29 10° SSW
Cosmos 1953 2.2 19:57:16 10° S 20:01:14 72° E 20:05:13 10° NNE
Nadezhda 4 Rocket 4.0 19:55:24 10° N 20:01:39 63° ENE 20:07:47 10° SSE
In-Cosmos 22 4.5 19:56:06 10° NNW 20:01:55 79° W 20:07:38 10° S
ISS -2.3 20:00:50 10° SSW 20:03:42 29° SE 20:05:06 21° E
Cosmos 1733 4.1 20:03:27 10° SSE 20:06:43 27° E 20:10:00 10° NNE
ERBS 3.5 20:06:16 10° NW 20:09:25 30° NNE 20:11:06 20° ENE
Cosmos 1092 Rocket 4.1 20:05:28 10° N 20:11:34 55° ENE 20:17:35 10° SSE
Cosmos 1674 2.8 20:07:54 10° N 20:11:44 54° ENE 20:15:32 10° SSE
GP-B 4.0 20:09:27 10° NNE 20:13:15 27° E 20:15:27 18° SE
Cosmos 1470 3.2 20:09:52 10° SSE 20:13:28 38° E 20:17:05 10° NNE
Cosmos 2058 4.1 20:11:46 10° NNE 20:14:59 22° ENE 20:15:30 21° E
Spot 2 Rocket 3.5 20:10:04 10° SSE 20:15:06 89° E 20:20:11 10° NNW
Cosmos 1048 Rocket 4.0 20:14:09 10° S 20:19:19 59° ESE 20:24:29 10° NNE
ATLAS 5 CENTAUR R/B 2.3 20:16:01 10° SW 20:20:50 65° NW 20:26:10 10° NE
Cosmos 2026 Rocket 4.4 20:16:51 10° N 20:22:32 39° ENE 20:26:45 17° SE
Cosmos 2151 3.5 20:19:12 10° N 20:23:09 37° ENE 20:24:58 25° ESE
Abrixas 2.8 20:20:44 10° SW 20:23:38 48° SSE 20:24:16 40° ESE
Cosmos 1269 Rocket 3.9 20:19:26 10° SSW 20:24:42 76° ESE 20:30:00 10° NNE
Cosmos-2242 3.3 20:20:57 10° SSW 20:25:19 72° W 20:29:45 10° N
H-2A R/B 4.3 20:26:02 11° NE 20:26:02 11° NE 20:26:52 10° NE
Envisat 4.2 20:25:24 21° ENE 20:26:18 22° ENE 20:30:08 10° NNE
USA 215 3.6 20:21:56 11° ENE 20:27:56 44° SE 20:34:05 10° SSW
Cosmos 1174 4.3 20:26:29 10° S 20:30:45 39° ESE 20:31:50 32° E
Cosmos 1634 Rocket 4.1 20:25:07 10° SSE 20:31:04 49° E 20:37:00 10° NNE
Cosmos 2221 4.1 20:32:53 19° NE 20:32:53 19° NE 20:34:39 10° NE
Cosmos 158 Rocket 4.1 20:27:01 10° S 20:31:38 44° ESE 20:36:16 10° NNE
HJ-1C 4.3 20:28:44 10° S 20:32:00 49° W 20:35:19 10° NNW
FengYun 1-2 T 4.2 20:27:47 10° SSE 20:33:18 84° WSW 20:38:49 10° NNW
ATLAS CENTAUR R/B 4.2 20:28:16 10° SW 20:34:16 85° NW 20:55:06 10° NE
Cosmos 1544 3.6 20:32:03 10° SSW 20:35:45 64° W 20:39:29 10° N
Meteor 1-11 4.4 20:34:11 10° N 20:39:50 50° ENE 20:42:55 25° SE
Cosmos 2195 Rocket 4.5 20:38:39 10° N 20:44:57 64° ENE 20:50:13 15° SSE
Cosmos 1500 Rocket 4.0 20:45:33 10° NNW 20:49:57 63° W 20:54:21 10° S
CZ-4B DEB 3.2 20:49:16 29° S 20:50:45 63° WSW 20:54:00 10° NNW
SL-16 R/B 4.2 20:46:56 10° WSW 20:51:46 28° NW 20:56:39 10° N
Cosmos 1842 Rocket 3.7 20:49:33 10° SSW 20:53:52 74° W 20:58:15 10° N
ERS-1 Rocket 3.3 20:55:49 40° E 20:56:19 42° ENE 21:01:02 10° N
FENGYUN 3A 3.9 20:52:01 10° S 20:57:22 71° WSW 21:02:47 10° NNW
Cosmos 1666 Rocket 4.4 20:58:59 10° N 21:02:13 34° NE 21:02:13 34° NE
CZ-4C R/B 4.4 21:00:17 10° WNW 21:04:49 22° NNW 21:09:49 10° NNE
Cosmos 1328 3.9 21:01:49 10° NNW 21:05:47 73° W 21:06:52 45° SSW
Meteor 1-29 4.5 21:04:14 10° N 21:07:31 38° WNW 21:10:47 10° SW
Cosmos 1110 Rocket 4.0 21:02:40 10° NNW 21:08:01 86° WSW 21:10:02 39° SSE
CZ-2D R/B 3.9 21:06:27 27° SSW 21:08:21 53° W 21:12:12 10° NNW
SL-14 R/B 3.3 21:05:33 10° N 21:09:17 69° NE 21:09:17 69° NE
ASTEX 1 4.1 21:11:11 10° N 21:15:58 54° WNW 21:20:43 10° SSW
Cosmos 1939 Rocket 4.0 21:20:12 33° NNE 21:20:12 33° NNE 21:22:34 10° N
H-2A R/B 3.9 21:17:06 25° SSW 21:18:50 41° W 21:22:31 10° NNW
Cosmos 1943 Rocket 2.0 21:14:25 10° NNW 21:20:05 85° ENE 21:21:11 59° SE
ALOS 3.8 21:20:49 10° SSW 21:25:04 34° W 21:29:21 10° NNW
Cosmos 2369 Rocket 3.3 21:22:09 10° NW 21:27:23 40° WSW 21:31:02 19° SSW
Cosmos 2251 Rocket 3.3 21:23:28 10° SSW 21:28:42 84° ESE 21:33:59 10° NNE
Aureole 3 4.0 21:24:18 10° N 21:30:23 70° ENE 21:30:23 70° ENE
Resurs 01 Rocket 4.4 21:27:35 10° SW 21:30:32 17° W 21:33:29 10° NW
SPOT 5 4.3 21:32:48 23° NNE 21:32:48 23° NNE 21:34:44 10° N
Cosmos 1943 3.6 21:26:10 10° SW 21:31:45 63° WNW 21:37:21 10° NNE
CENTAUR R/B 2.7 21:28:24 10° SW 21:34:35 74° NW 21:41:40 10° NE
SL-8 R/B 3.8 21:30:04 10° WSW 21:34:18 70° W 21:34:18 70° W
Sich 1 4.1 21:30:46 10° N 21:33:34 38° N 21:33:34 38° N
Cosmos 2180 Rocket 4.3 21:34:58 67° SE 21:35:38 74° E 21:41:47 10° NNE
Gbstr 26 Del rocket 3.4 21:32:07 10° WSW 21:36:27 76° SW 21:36:27 76° SW
ISS -0.6 21:36:50 10° W 21:37:46 18° W 21:37:46 18° W
BREEZE-M DEB (TANK) 3.3 21:32:19 10° WNW 21:41:39 62° SSW 21:41:39 62° SSW
Cosmos 2279 Rocket 4.1 21:48:01 30° SSW 21:51:18 73° W 21:57:32 10° N
Cosmos 2058 4.4 21:48:17 10° NNW 21:51:47 34° W 21:51:47 34° W
Cosmos 1302 Rocket 4.2 21:47:41 10° NNW 21:52:26 65° WNW 21:52:26 65° WNW
H-2A R/B 3.9 22:03:10 28° N 22:03:10 28° N 22:05:18 10° NNW
Envisat 3.6 22:05:36 53° WNW 22:05:36 53° WNW 22:09:57 10° NNW
Cosmos 2266 Rocket 4.1 21:59:42 10° N 22:05:12 67° N 22:05:12 67° N
ATLAS 5 CENTAUR R/B 4.3 22:02:50 10° WNW 22:06:37 20° NNW 22:10:40 10° NNE
Cosmos 2221 4.4 22:09:43 29° NW 22:09:43 29° NW 22:12:32 10° N
USA 215 3.4 22:09:20 48° NNE 22:11:10 69° NNW 22:17:38 10° WSW
Terra 4.4 22:23:48 13° N 22:23:48 13° N 22:24:26 10° N
H-2A R/B 4.1 22:30:01 20° N 22:30:01 20° N 22:31:41 10° N
Cosmos 1980 Rocket 4.4 22:54:04 10° N 22:55:57 17° N 22:55:57 17° N
CENTAUR R/B 4.4 23:20:58 10° W 23:26:31 28° NNW 23:32:41 10° NE
